Location: Rowland
(34.5359°N, 79.2929°W)
Time: 15:56:21
(UTC+00:00)

A-11 Canister half - Pass Details

Date: 12 October 2022
Orbit: 1515 x 1684 km, 47.2° (Epoch: 06 December)

Event Time Altitude Azimuth Distance (km) Brightness Sun altitude
Rises 00:05:33 0° 253° (WSW) 4,890 13.0 -16.8°
Reaches altitude 10° 00:08:50 10° 257° (WSW) 3,886 12.3 -17.5°
Maximum altitude 00:18:33 57° 335° (NNW) 1,849 9.5 -19.5°
Enters shadow 00:26:39 15° 50° (NE) 3,376 10.4 -21.2°
